Wind_Speed
23 22 19 17 17 18 17 16 15 17 19 21 23 25 27 29 29 25 23 23 24 29 32 31 32 32 31 30 31 33 36 38 40 42 44 45 46 45 44 43 43 43 42 41 43 44 44 43 42 41 40 40 39 40 42 45 46 48 48 49 51 52 51 50 50 51 53 55 56 57 56 54 53 51 50 50 50 50 50 50 51 52 53 54 55 53
24 22 18 17 18 18 17 16 16 17 20 22 23 24 26 28 28 25 23 23 23 29 33 32 33 34 32 32 33 36 40 42 43 43 44 45 44 43 42 42 41 41 41 42 43 45 44 43 42 42 42 42 41 42 43 45 46 47 48 49 52 52 50 50 51 52 54 56 57 57 56 55 53 53 52 52 53 52 52 51 52 53 54 55 56 55
25 21 17 18 18 17 17 16 17 17 19 21 21 24 26 25 27 26 24 24 24 29 34 34 35 36 35 35 36 40 42 41 41 40 40 40 40 39 39 40 40 41 41 42 43 44 44 43 43 43 44 44 43 43 44 44 45 47 48 50 52 51 50 50 52 53 54 56 56 56 55 54 53 53 52 53 54 53 52 52 51 52 53 54 54 54
26 21 18 19 18 18 18 17 17 17 18 19 21 23 24 23 25 27 27 27 27 29 34 38 42 43 39 35 32 34 36 35 34 35 35 35 36 37 37 38 39 40 39 40 42 43 43 44 44 44 45 45 44 44 44 44 46 47 49 51 52 51 51 51 52 53 55 56 55 54 53 52 52 52 51 52 52 52 52 52 52 51 52 54 54 53
26 21 19 19 19 19 19 18 18 18 18 19 19 21 21 21 22 27 30 30 31 30 31 37 43 41 32 23 23 26 29 31 32 33 35 35 35 36 37 38 38 38 38 39 41 42 44 45 45 45 45 45 45 44 45 45 47 49 50 52 53 52 52 53 53 54 55 56 55 54 53 52 51 51 51 52 52 53 53 54 55 53 54 56 58 56
26 20 18 20 21 20 18 18 18 18 20 20 18 17 19 21 24 27 29 31 32 28 26 29 25 19 15 17 26 33 33 33 33 35 35 35 36 37 36 37 37 37 38 39 41 42 44 45 45 45 45 45 45 45 45 46 48 49 51 53 54 53 53 54 54 55 56 56 56 55 54 54 54 54 54 55 56 56 55 56 56 55 54 56 59 59
25 19 19 22 22 20 19 18 17 17 20 21 19 17 18 22 25 27 30 30 28 24 26 28 21 17 22 31 38 38 34 33 33 36 36 35 36 36 35 37 37 36 37 38 40 42 44 45 46 45 45 45 45 45 46 47 48 49 51 54 54 53 53 54 54 55 56 56 55 54 54 54 55 56 56 56 57 57 57 56 56 56 55 56 57 59
25 20 21 23 22 22 20 17 15 16 19 21 21 18 20 24 25 28 31 31 32 34 35 37 32 27 33 41 41 34 31 33 35 36 34 33 33 33 35 36 35 35 36 38 40 42 44 45 45 45 44 45 45 46 46 47 48 49 52 54 53 52 53 54 55 55 56 56 55 53 53 54 54 55 57 57 57 56 57 57 57 57 57 57 58 59
24 22 23 23 23 22 19 16 15 17 20 22 21 20 23 25 26 30 31 34 38 32 32 40 32 20 28 39 36 32 32 34 34 33 30 29 29 30 34 35 35 36 36 38 40 43 45 45 45 45 44 45 45 45 46 47 48 51 54 54 53 52 53 54 55 55 55 55 53 53 54 54 54 56 57 58 58 57 58 59 59 59 58 58 59 60
22 22 22 22 24 21 17 16 17 18 19 20 21 22 25 25 28 32 31 36 33 20 27 42 30 14 21 34 33 30 32 33 34 33 29 28 29 32 34 34 35 36 37 39 41 43 44 44 45 45 45 45 45 45 46 47 49 52 54 54 52 53 54 55 55 55 55 53 53 53 54 55 56 57 59 59 60 59 60 61 60 60 60 60 60 61
21 21 22 22 23 20 17 17 18 18 18 19 20 22 25 26 29 30 30 30 19 11 25 33 24 17 15 25 32 31 33 35 35 34 30 29 32 34 34 33 34 36 37 39 41 42 43 44 45 45 45 45 44 44 45 48 50 52 54 53 53 54 54 55 55 54 54 52 53 53 54 56 57 59 60 62 62 62 62 63 62 61 61 61 61 62
21 21 23 24 22 19 18 18 18 18 17 18 20 22 24 22 21 20 19 15 5 7 21 19 14 17 17 24 37 38 39 37 32 31 29 29 33 34 32 32 33 35 38 40 41 42 43 44 45 44 45 44 43 44 46 48 51 52 54 55 54 54 54 55 54 54 53 53 53 54 56 57 58 60 61 63 64 64 64 65 64 63 62 62 62 63
26 26 25 23 19 17 17 18 17 16 15 16 18 19 17 11 10 7 6 5 6 12 21 16 11 17 29 41 46 40 36 31 28 29 28 29 33 33 32 32 34 36 38 41 41 42 43 43 44 44 44 43 43 45 47 50 52 54 56 56 54 54 54 54 54 53 53 53 54 56 57 58 59 60 62 64 64 65 66 66 66 65 64 63 63 65
25 24 21 18 16 14 14 15 15 14 14 14 16 16 11 4 5 5 4 5 8 15 22 18 12 17 31 41 37 29 29 29 30 30 30 33 32 31 33 34 36 38 38 41 41 42 43 43 44 44 43 43 44 46 48 51 54 56 58 56 54 54 54 54 54 53 53 53 55 56 58 59 60 61 62 64 65 65 66 67 67 66 66 65 64 66
16 15 16 16 14 12 12 13 13 15 16 17 18 17 17 14 8 6 5 5 9 19 24 16 9 12 22 28 29 31 36 36 35 33 33 35 32 31 35 35 36 38 38 40 42 42 43 44 44 43 43 44 44 46 50 53 56 59 58 56 55 55 55 55 54 54 54 54 55 56 58 59 60 61 62 64 65 65 66 67 67 67 66 66 65 66
14 15 17 17 15 13 14 16 15 16 15 15 17 19 21 21 18 18 19 20 17 18 18 16 18 27 35 40 40 39 39 36 33 33 33 32 31 30 32 33 34 36 38 40 42 43 43 43 43 44 43 44 44 48 52 55 59 60 58 55 55 55 55 55 54 54 54 55 55 56 58 59 60 61 63 64 65 65 66 66 67 67 67 66 66 67
14 17 18 16 17 17 18 19 17 17 14 13 16 20 22 20 20 22 21 20 15 10 15 19 27 40 42 39 38 34 34 34 30 31 31 27 27 28 29 32 33 34 37 40 42 43 43 42 43 43 43 43 46 50 54 58 61 59 57 55 56 56 55 54 54 54 54 55 56 56 58 59 60 62 63 64 64 65 65 66 66 66 67 67 68 67
19 24 26 23 22 22 21 20 19 20 19 19 20 20 19 16 18 18 10 8 5 5 14 20 28 39 32 24 33 35 32 31 28 28 28 24 26 29 31 32 32 35 38 40 43 42 41 43 42 42 43 44 49 53 56 60 60 57 56 56 56 55 54 53 53 53 53 54 56 57 58 59 60 62 63 64 64 64 65 65 64 65 66 68 69 67
22 27 29 25 23 22 21 20 20 22 22 23 25 23 18 15 15 15 9 4 5 4 9 16 23 38 35 28 36 39 30 27 28 29 27 24 28 32 32 32 32 36 39 40 42 41 41 43 42 43 44 47 52 55 57 59 57 55 55 55 55 54 53 53 52 53 53 54 55 56 57 59 60 61 62 63 63 64 65 65 64 64 66 68 70 66
24 23 22 21 20 19 19 22 23 25 24 25 27 27 26 24 21 21 16 9 6 5 10 11 12 30 40 31 30 31 28 29 33 31 27 28 34 35 32 32 33 36 39 40 41 40 41 42 43 45 47 50 53 54 56 57 54 53 54 54 54 52 51 51 51 52 53 53 54 55 57 59 60 61 61 62 63 64 65 65 64 64 66 68 70 66
25 24 24 23 21 20 24 27 27 25 23 25 30 30 30 29 27 25 23 22 17 8 8 5 9 32 41 28 26 31 33 39 39 33 32 35 38 35 31 31 32 35 38 39 39 40 41 43 45 48 49 51 52 53 55 54 51 52 53 52 52 51 50 50 50 51 52 53 54 55 57 59 59 60 61 61 62 63 64 65 64 65 66 68 69 65
25 27 31 30 28 30 33 33 28 26 26 28 32 33 33 32 28 18 14 22 26 20 14 5 11 36 40 27 34 39 38 44 43 36 38 41 39 34 31 30 32 34 36 37 39 41 43 46 47 48 49 50 51 53 52 51 50 51 51 51 51 50 49 50 50 51 52 53 54 55 57 58 59 60 60 60 61 62 63 64 64 65 66 67 68 63
25 28 33 35 37 37 37 34 30 30 34 34 35 37 35 32 32 24 14 16 21 25 26 14 13 35 43 35 39 41 41 44 42 39 42 42 39 34 31 32 32 34 36 38 41 44 46 47 47 47 49 50 51 51 49 49 50 50 50 50 50 49 49 49 49 51 52 53 54 56 57 58 59 59 59 59 61 62 63 64 64 65 66 67 68 61
25 29 33 36 37 37 38 38 36 36 38 40 40 40 36 34 35 35 30 25 20 22 22 10 13 35 45 41 40 40 44 45 41 43 47 43 40 36 32 33 33 35 39 41 44 46 46 46 46 47 50 51 51 49 48 49 50 50 50 50 49 49 48 48 49 51 52 54 55 56 57 58 58 59 59 59 60 61 63 64 64 65 66 67 68 60
25 28 30 25 20 21 24 23 24 30 33 36 37 35 34 35 35 37 37 29 24 27 23 12 17 40 47 44 44 45 49 51 48 50 50 44 40 37 34 36 38 40 43 44 45 46 44 45 47 49 51 51 49 48 48 49 50 50 50 49 48 48 48 48 49 51 53 55 56 57 57 58 58 58 58 59 60 61 62 64 65 66 67 68 68 59
30 32 32 23 11 10 15 15 19 27 28 31 36 36 35 35 34 37 35 28 24 29 31 28 32 51 59 51 51 56 56 55 54 52 51 47 42 41 40 41 42 43 44 45 45 44 44 47 49 51 51 48 46 48 49 49 50 50 49 47 47 48 48 49 50 52 54 55 57 58 58 58 58 58 58 58 60 61 62 63 64 66 67 69 68 58
35 38 40 38 32 31 36 37 37 37 37 39 43 42 40 36 33 34 33 35 35 30 37 50 49 54 66 60 54 59 57 52 53 52 51 50 47 45 44 43 44 44 45 46 46 45 47 50 51 50 47 45 46 48 49 50 50 49 48 47 46 47 48 49 51 53 55 56 57 58 59 59 59 58 58 58 59 60 61 63 64 66 68 70 67 56
38 41 44 45 46 47 49 48 44 43 46 49 50 49 45 36 33 36 38 47 46 27 35 60 55 50 65 64 52 54 53 51 53 52 50 49 47 45 44 44 45 46 47 48 47 49 50 50 48 46 45 46 47 48 48 49 48 47 46 46 46 47 48 50 52 53 55 57 58 59 60 61 60 59 58 58 59 60 60 62 64 66 68 70 64 53
39 43 46 46 48 50 50 47 45 46 48 51 54 53 47 40 41 44 47 55 51 37 45 66 61 56 69 67 56 55 55 55 55 53 51 49 47 48 48 48 49 49 50 50 50 50 49 46 45 45 46 47 47 48 48 46 45 44 44 44 45 47 49 51 53 54 56 58 59 60 61 61 61 59 57 57 58 59 59 61 63 65 68 68 61 50
39 45 47 46 48 51 49 46 46 47 48 54 60 57 51 51 52 50 54 59 57 55 63 68 64 67 70 63 59 58 55 57 56 53 53 53 52 53 52 51 52 52 52 50 48 47 45 44 46 46 47 47 47 47 46 44 43 43 43 44 45 47 50 52 54 56 58 59 60 61 62 62 61 59 57 57 58 59 60 61 63 66 68 65 57 49
40 45 45 43 44 47 49 45 44 45 47 54 61 58 55 56 55 54 59 63 60 61 64 62 64 69 63 53 54 54 51 53 52 50 52 52 51 51 49 49 49 48 47 45 43 43 43 45 46 46 46 46 46 45 43 42 41 41 42 43 45 48 51 53 55 57 58 60 62 63 63 62 61 59 57 57 58 59 60 61 64 66 68 64 55 48
40 43 45 41 36 41 47 43 41 44 44 51 62 63 59 58 57 57 57 56 55 58 57 54 60 63 56 49 49 50 49 50 48 47 47 46 46 45 44 44 44 43 42 41 40 43 44 45 45 44 45 45 44 42 41 40 39 39 41 43 46 49 52 54 56 58 59 61 62 63 63 62 61 59 57 57 58 59 60 61 64 66 67 63 53 47
40 41 44 40 32 37 43 39 39 36 27 37 58 61 53 51 49 47 48 50 51 51 50 52 57 58 54 48 48 48 48 48 46 45 44 43 42 41 42 43 42 41 40 40 41 43 44 44 43 43 44 43 41 39 38 38 38 38 41 44 47 50 52 55 57 58 59 61 62 64 63 62 60 58 57 57 58 60 60 61 64 66 67 62 52 46
44 43 43 40 31 31 37 35 29 19 16 37 58 56 48 46 41 39 47 56 54 48 51 57 59 55 48 45 43 43 45 46 45 45 43 41 40 41 43 44 42 41 40 39 41 42 42 42 42 42 43 41 38 37 36 36 36 38 42 45 48 51 53 55 57 59 60 62 62 64 63 62 60 57 56 57 58 60 60 61 63 65 66 63 53 45
50 46 43 42 35 31 33 25 9 9 31 53 57 50 48 46 41 43 54 61 58 53 55 57 53 48 43 39 37 38 41 41 40 42 41 39 40 41 43 43 41 40 39 38 39 41 41 42 41 41 40 38 36 36 34 34 35 37 41 44 48 51 53 56 58 60 61 62 63 64 63 62 59 57 56 56 57 59 60 60 63 64 66 63 52 44
53 48 45 43 37 28 21 15 13 24 50 61 53 49 53 52 49 51 55 58 55 50 48 47 46 45 40 33 31 33 34 35 35 37 37 36 39 41 41 41 39 37 37 38 39 40 40 40 40 38 37 36 35 34 33 34 35 38 41 45 48 51 54 56 58 60 62 63 64 64 63 62 60 57 56 56 57 59 60 61 62 64 65 62 51 42
55 52 49 42 37 32 25 24 29 35 47 60 60 55 54 53 49 44 45 52 54 48 46 46 44 38 29 23 25 26 26 30 33 33 32 33 37 39 39 38 37 36 37 37 38 39 39 38 37 35 34 33 33 33 33 34 36 39 42 45 49 52 55 57 59 61 63 64 65 65 64 63 60 57 56 56 57 58 60 61 63 63 65 62 50 40
56 55 53 43 36 37 31 23 19 16 26 51 60 51 46 42 36 29 33 48 56 51 47 43 34 26 21 19 21 21 21 28 31 28 27 29 33 34 35 35 34 34 35 36 36 37 36 35 34 33 32 32 32 32 32 34 37 40 43 46 50 53 55 57 59 61 63 65 66 67 66 64 61 58 56 55 57 59 60 61 63 64 65 62 50 38
56 54 53 44 34 33 30 17 9 14 32 52 54 48 44 39 34 26 25 41 53 45 37 32 25 25 26 24 23 21 21 27 27 22 21 25 28 30 32 32 32 33 34 34 34 33 32 32 32 31 30 31 31 31 32 34 37 40 44 48 51 54 56 58 61 63 64 66 67 68 68 65 61 57 55 55 56 58 60 61 63 65 65 61 50 37
51 50 47 44 41 40 35 24 19 30 46 53 50 46 42 38 32 18 12 32 45 35 28 30 31 33 33 30 28 27 26 27 23 16 17 24 26 29 30 30 31 31 31 31 29 29 29 30 29 29 29 30 30 31 32 34 38 41 45 49 52 55 58 59 62 64 66 68 69 70 69 65 60 55 54 54 55 58 60 60 63 65 64 58 47 36
44 45 44 47 48 44 38 29 28 41 54 55 52 50 45 37 27 17 18 34 37 27 30 36 37 38 38 36 36 33 27 24 20 17 21 25 26 28 28 28 29 29 28 27 26 26 27 27 27 27 28 29 30 31 32 36 39 43 47 51 54 57 58 60 63 65 68 70 71 71 69 63 57 53 52 53 55 57 59 59 62 64 62 54 44 35
38 37 38 45 45 40 37 31 28 39 51 51 48 50 46 36 28 27 34 39 32 31 38 41 41 42 41 39 37 32 25 22 21 21 23 24 26 27 27 27 27 26 25 24 24 25 25 25 26 27 27 29 30 31 33 36 40 44 48 52 55 57 59 62 64 67 70 72 73 71 66 59 53 51 51 52 54 57 58 58 60 62 57 51 44 37
42 33 33 41 41 33 30 24 20 26 37 39 34 40 44 38 33 38 43 40 39 43 45 44 44 43 40 38 35 29 24 23 22 23 24 24 25 26 25 25 25 23 23 23 23 24 24 24 25 26 27 28 29 31 34 37 41 45 49 53 55 57 60 63 66 69 72 73 71 67 61 54 50 49 49 51 53 56 57 57 59 60 55 49 45 39
47 41 37 41 39 31 30 29 28 33 40 42 39 41 43 42 42 44 45 45 47 48 47 46 44 42 40 39 34 28 26 25 24 24 24 23 24 24 23 23 21 21 22 22 22 23 23 23 25 26 27 28 30 32 35 39 42 46 50 53 56 58 61 65 68 71 72 70 67 62 55 49 47 47 49 50 53 55 56 56 58 59 53 48 45 39
52 53 46 46 47 40 38 44 49 48 48 50 51 50 48 47 46 46 48 50 49 48 48 48 45 43 42 38 32 29 28 25 24 23 23 23 23 22 21 20 19 20 21 21 21 22 22 22 24 25 26 28 30 33 36 40 43 47 51 54 56 59 63 67 70 71 69 66 63 57 50 46 46 47 48 50 52 54 56 56 58 58 53 48 44 39
55 54 50 48 49 48 51 56 57 52 51 53 53 50 48 47 47 48 49 50 50 50 49 48 46 44 41 37 33 30 28 25 24 23 23 23 21 20 20 19 18 20 21 20 20 21 21 22 23 24 26 28 30 34 37 41 44 49 51 54 57 60 64 68 69 68 66 63 59 52 46 44 45 46 48 49 51 53 55 56 58 58 53 48 44 39
53 51 50 49 47 48 52 57 57 53 52 52 50 48 47 46 46 48 48 49 50 50 49 48 46 43 39 37 34 30 27 26 24 23 22 21 20 19 19 18 19 20 20 19 20 20 21 22 23 24 26 28 31 34 38 41 45 49 52 54 57 61 65 67 67 65 63 60 54 47 44 44 44 45 47 48 50 52 54 54 57 57 52 48 45 40
51 48 50 52 53 54 55 58 57 54 52 51 50 49 47 46 46 46 46 45 46 47 48 46 44 42 39 36 32 30 28 26 25 23 21 19 19 19 18 18 19 19 19 19 20 20 21 21 23 24 26 28 31 34 38 42 46 49 52 55 58 62 65 65 64 63 61 55 49 44 42 43 44 45 47 48 48 51 54 56 57 57 53 49 47 43
48 46 50 52 52 54 59 61 59 57 54 52 50 47 45 43 42 42 41 41 41 43 45 44 42 41 38 34 33 31 28 27 25 22 20 19 18 18 17 18 19 19 19 19 19 20 21 21 22 24 26 29 32 34 38 42 46 49 52 56 59 62 63 62 62 61 57 50 44 41 41 42 44 44 46 46 46 48 52 57 60 58 53 50 48 45
50 51 53 52 50 56 65 65 58 55 53 50 48 46 42 40 40 39 39 40 41 42 42 41 40 39 36 34 33 31 29 27 24 21 20 19 18 17 17 18 19 19 19 19 19 20 20 21 22 24 26 29 32 35 38 42 46 50 53 56 59 61 61 60 60 58 53 46 41 40 41 42 43 44 44 45 45 45 47 52 58 59 55 51 49 44
58 58 58 57 58 63 67 61 54 53 53 51 51 48 44 42 42 41 41 43 43 41 40 40 39 37 35 35 33 31 29 26 23 21 21 18 17 17 18 18 19 19 19 19 19 20 20 21 22 24 27 29 32 35 39 42 46 50 53 56 59 59 59 59 58 55 49 44 40 40 41 42 42 43 43 43 44 45 45 46 50 54 54 54 51 45
Wind_Direction
317 319 321 317 314 316 313 310 304 297 294 294 297 301 303 301 305 316 312 303 299 294 295 296 292 291 293 292 290 286 284 283 284 286 287 288 288 289 289 288 287 287 288 289 289 288 289 289 290 291 291 290 290 290 291 291 293 296 297 298 302 305 306 306 306 307 308 309 309 310 313 316 320 322 324 325 326 324 323 321 318 315 312 308 304 300
314 317 317 312 311 311 308 305 301 297 296 296 298 301 302 302 305 312 307 301 300 294 296 299 289 287 293 293 288 282 282 285 287 287 287 286 286 286 285 284 285 285 286 287 287 287 287 288 289 291 291 290 290 289 289 290 292 295 296 299 304 306 306 307 308 308 308 309 311 313 316 319 321 323 325 325 325 324 323 321 318 315 311 307 304 299
312 314 311 309 310 307 305 302 298 296 295 297 299 298 301 309 309 309 307 304 302 296 299 301 288 284 289 290 287 283 282 286 287 286 285 284 282 282 282 282 282 283 284 285 285 285 286 286 288 289 290 289 288 288 288 289 292 295 297 301 305 306 306 307 307 306 307 308 311 314 317 319 320 322 324 325 324 323 321 319 315 312 309 306 303 298
309 311 307 306 308 305 301 298 294 292 293 296 298 297 301 312 310 306 306 304 301 297 299 300 290 282 285 287 286 283 283 286 286 284 283 282 281 280 279 280 280 281 283 284 283 283 283 284 285 287 287 287 287 287 287 289 292 295 297 302 306 307 306 306 305 305 306 308 310 313 316 318 319 320 321 322 321 320 319 317 314 311 309 308 306 302
305 305 300 302 305 303 298 294 292 290 292 293 294 296 301 311 308 303 304 302 299 296 297 300 293 286 286 289 291 289 288 290 290 286 283 283 282 279 278 278 279 281 281 282 281 281 281 281 283 284 284 285 285 285 286 289 292 295 298 303 307 307 306 304 303 304 305 307 309 311 313 315 317 318 319 319 319 318 318 317 315 313 312 311 310 307
304 301 296 302 303 300 295 290 289 289 291 291 292 295 301 309 308 305 304 302 299 296 297 301 298 293 286 284 295 296 293 292 291 286 283 281 279 276 278 278 278 280 280 280 279 279 279 279 280 282 283 285 284 284 287 289 293 296 299 304 307 306 304 302 302 303 305 307 309 312 313 315 316 317 319 320 320 319 319 317 315 312 310 310 309 309
303 299 296 301 301 297 291 288 288 287 289 290 292 297 302 306 306 304 302 298 295 290 293 293 285 282 278 280 293 297 292 290 288 288 285 279 278 278 279 277 276 279 279 278 279 278 278 278 280 281 282 284 284 284 287 290 293 296 300 304 306 304 302 302 302 303 305 307 310 313 315 317 318 318 319 320 320 319 318 316 313 311 309 309 309 308
300 296 295 300 296 290 288 288 286 281 282 287 293 298 301 304 305 301 298 294 290 287 289 285 276 275 276 282 295 296 290 290 290 294 292 282 282 283 278 276 276 278 279 278 278 277 277 278 279 280 282 282 283 284 287 291 294 297 302 305 305 304 303 303 303 304 306 308 310 313 316 318 319 319 319 319 320 319 317 315 313 311 310 310 311 310
295 290 293 295 289 287 288 286 276 273 278 283 290 296 298 303 301 297 295 291 290 290 287 282 274 267 272 279 292 292 287 293 299 302 297 288 288 285 278 275 275 276 278 279 277 276 277 279 280 280 281 282 282 285 289 293 297 301 304 305 306 305 305 304 304 305 306 308 311 313 316 318 318 319 319 319 320 320 318 316 314 312 312 312 312 313
289 287 291 290 285 287 286 276 267 269 276 280 288 293 296 299 296 294 292 288 289 282 276 281 275 253 271 279 283 286 289 300 308 305 296 290 289 284 278 276 276 277 278 277 276 276 277 279 280 280 280 280 282 286 290 295 300 303 305 306 306 306 306 305 305 305 306 308 311 314 316 317 318 318 318 319 319 320 320 317 315 313 313 314 314 315
285 284 289 288 286 286 278 269 266 267 271 276 283 288 291 293 291 289 286 284 287 268 271 283 274 249 267 284 282 288 298 305 308 301 293 290 287 282 280 279 278 277 277 276 275 275 277 278 278 278 279 279 282 286 292 298 302 305 306 306 307 306 305 305 304 304 306 309 312 315 316 317 318 319 318 319 320 321 321 318 316 314 314 315 315 316
282 283 289 289 284 279 272 265 263 262 263 270 278 287 293 295 293 285 276 275 260 264 282 294 284 247 235 270 285 294 301 304 303 297 294 291 285 282 281 280 279 278 276 274 273 274 275 276 276 277 277 279 282 289 295 300 303 306 307 306 305 305 304 303 303 304 307 311 313 316 318 318 319 320 320 320 321 322 321 319 317 315 315 317 317 317
285 287 290 287 277 271 263 256 257 256 259 268 275 284 291 304 311 279 248 255 224 261 284 290 288 253 245 268 285 292 298 302 297 295 296 291 283 279 280 281 280 278 274 273 273 273 274 274 275 275 276 279 285 291 296 301 306 308 307 305 304 304 304 303 304 306 308 312 314 317 319 320 321 321 321 322 322 322 321 319 318 317 318 319 319 318
288 290 288 282 275 266 250 247 256 258 261 269 271 274 273 289 338 291 260 281 261 273 285 280 275 265 264 278 289 293 300 302 294 294 297 292 282 278 280 282 281 277 274 274 273 272 273 273 274 274 276 281 287 293 299 305 308 309 307 305 304 304 304 304 305 308 310 312 315 318 320 321 322 323 323 322 322 322 321 320 319 320 320 322 322 320
276 279 281 278 273 262 250 255 265 268 269 269 264 260 253 243 245 263 267 273 287 296 293 278 255 256 272 284 289 293 299 297 292 294 295 291 285 282 283 283 281 279 276 274 272 271 271 271 273 274 277 284 290 297 303 308 309 309 307 305 304 305 304 305 307 308 311 313 317 319 321 322 323 324 323 322 322 322 322 321 320 321 323 324 324 322
261 263 274 273 262 257 265 270 267 264 265 261 251 243 249 253 249 250 258 264 281 301 290 262 253 265 276 281 281 288 295 293 293 295 293 290 287 287 287 284 282 279 276 273 270 269 269 269 272 275 280 287 294 300 305 309 310 308 307 305 305 305 305 307 308 309 312 314 318 320 322 323 323 323 323 322 323 322 321 322 322 323 325 325 325 324
263 267 274 269 259 260 270 272 263 258 259 250 245 251 262 267 256 251 263 272 273 286 278 265 269 279 284 284 281 287 294 295 299 297 292 290 291 291 288 284 281 277 274 270 267 266 266 269 272 276 284 291 296 301 306 309 309 307 306 306 306 306 307 308 309 310 313 315 318 321 322 323 323 322 322 322 322 322 321 322 323 325 325 325 325 324
264 272 276 270 264 264 266 265 258 254 254 248 254 267 270 264 254 247 262 294 259 246 274 270 274 282 282 280 285 290 296 300 303 297 292 292 295 296 290 284 280 275 271 267 264 264 265 268 273 279 288 293 297 302 306 308 308 307 307 307 306 307 308 310 311 313 315 317 319 321 322 322 321 321 321 321 322 322 321 323 324 325 325 325 326 325
264 274 279 273 264 263 258 253 252 251 250 252 260 265 259 252 252 238 221 272 271 241 277 274 277 280 272 266 282 290 294 301 302 295 292 297 299 298 292 285 280 273 269 265 262 264 266 270 276 282 289 294 299 304 307 308 308 307 307 307 307 308 310 312 313 315 318 319 320 321 321 321 321 321 321 321 322 322 322 324 325 325 325 325 326 325
260 267 275 270 260 255 243 238 247 255 254 254 255 252 251 254 256 247 229 226 248 256 276 279 282 280 275 273 283 289 292 298 299 293 292 298 299 297 291 285 279 272 267 263 262 264 268 272 277 283 290 296 301 305 308 308 307 306 307 307 308 310 312 314 316 317 318 320 320 321 321 321 321 320 320 321 322 323 323 324 325 326 325 325 325 324
252 250 260 263 252 241 244 252 264 271 265 257 251 248 253 255 254 256 249 237 237 251 281 283 273 276 278 280 283 286 292 296 296 293 293 295 296 295 288 280 276 270 265 263 263 266 270 273 279 287 294 299 303 308 308 307 306 306 307 308 309 312 314 316 318 318 320 321 321 322 321 321 320 319 320 321 323 324 323 325 326 325 325 324 325 324
249 245 253 256 250 251 263 272 274 271 266 263 259 258 263 262 252 252 258 242 233 232 241 242 277 276 274 273 278 282 290 294 292 290 292 293 293 291 285 277 272 268 264 263 265 269 273 278 285 292 297 301 306 308 306 304 305 306 307 309 311 314 316 318 319 320 322 322 323 323 322 321 320 319 321 322 323 324 323 324 325 324 324 324 324 323
253 251 254 255 257 264 272 273 268 268 268 265 262 262 263 259 246 239 245 246 234 233 238 241 269 272 271 273 278 283 289 291 289 289 292 293 291 289 282 276 272 267 266 267 271 275 279 284 291 295 299 304 307 306 304 303 305 306 307 310 312 315 317 319 321 322 323 324 324 324 323 322 321 320 321 322 323 323 324 324 324 324 323 324 325 323
246 244 250 256 262 265 267 268 267 268 267 262 262 262 259 256 251 246 245 249 252 243 236 231 256 264 270 278 280 284 289 290 289 291 293 292 290 287 280 276 274 271 273 275 278 281 285 290 294 297 302 306 305 303 302 303 305 306 308 310 313 316 318 321 323 324 325 325 325 325 324 322 322 321 322 323 324 324 324 324 324 324 324 325 326 323
247 243 245 252 269 272 267 267 262 259 261 263 266 266 262 260 254 245 243 247 256 254 238 219 251 265 273 279 280 284 288 289 290 291 292 291 289 286 281 278 278 278 279 280 282 285 289 293 296 299 303 304 302 302 303 304 305 306 309 312 314 317 320 322 324 325 326 327 327 326 325 324 323 322 322 323 324 324 323 324 323 324 325 325 326 323
255 252 246 238 239 259 260 262 263 267 271 271 270 269 267 261 248 242 244 243 248 255 246 237 253 272 278 277 278 284 286 287 290 291 290 289 286 283 281 281 281 282 283 284 286 288 291 294 298 301 302 301 300 301 303 304 305 307 310 313 316 319 321 323 325 327 328 328 328 327 326 325 324 323 324 324 324 323 323 324 324 325 326 326 325 322
253 253 251 245 242 248 258 267 275 279 278 274 275 276 272 265 252 243 240 241 249 254 254 255 260 272 279 277 278 283 286 286 288 289 288 286 283 282 282 281 281 283 284 286 288 290 293 296 299 300 299 299 300 301 303 304 306 308 311 314 317 320 321 323 326 328 328 328 328 328 328 327 326 325 324 324 323 324 324 325 325 326 327 327 325 322
248 250 254 252 252 256 263 269 273 274 273 274 276 275 271 268 258 244 240 253 261 252 257 270 270 269 278 282 281 282 284 285 286 287 287 285 283 282 282 280 282 285 286 287 288 291 294 297 298 297 296 297 300 301 303 305 306 310 313 316 319 321 323 325 327 328 328 328 328 329 328 329 328 326 325 324 323 324 325 326 326 326 328 328 324 320
247 252 258 257 257 263 267 267 268 269 270 273 274 270 267 266 262 255 255 264 265 250 258 276 278 274 279 283 281 281 283 283 285 285 283 281 280 280 280 281 284 285 286 287 289 292 295 296 295 295 295 297 300 302 303 305 308 312 315 318 320 322 324 327 328 329 329 329 329 329 329 329 329 326 324 323 323 324 326 326 325 326 328 328 323 319
248 253 261 259 258 265 267 266 267 268 268 271 273 269 265 265 265 263 265 269 266 258 263 273 276 277 283 283 281 283 283 281 282 281 279 278 278 279 281 284 285 285 286 287 291 293 294 293 292 293 295 298 301 302 303 306 310 314 317 319 322 324 327 328 329 330 330 330 330 330 330 329 328 326 324 323 323 324 325 326 324 325 328 328 323 318
248 253 260 258 258 265 269 268 269 268 267 270 272 269 264 265 265 262 265 269 266 262 268 272 269 275 288 293 289 288 286 283 282 281 281 281 280 281 284 286 286 286 286 289 291 292 290 290 291 292 295 298 300 302 304 309 314 317 319 321 324 326 328 329 330 331 331 331 331 331 330 329 328 326 324 323 323 324 325 325 324 325 328 328 322 316
250 252 257 255 254 263 269 270 268 268 269 269 270 269 265 264 266 266 268 272 269 265 270 268 264 276 296 304 296 292 289 286 284 284 284 283 283 285 286 285 284 285 287 289 289 288 287 288 290 292 296 299 300 303 307 312 317 319 320 323 326 328 330 330 330 331 332 332 332 331 331 329 328 326 324 323 323 323 325 326 325 325 328 328 322 315
254 253 255 253 249 258 266 267 268 273 276 269 270 275 274 270 272 272 274 278 276 267 264 266 273 287 299 298 293 291 288 285 285 284 283 282 283 283 281 281 282 283 285 286 285 285 286 288 290 293 297 299 301 305 312 316 319 321 323 326 329 329 330 330 330 332 333 333 333 332 331 330 328 326 325 324 323 323 325 326 325 325 327 328 323 315
255 255 255 251 247 254 260 263 268 273 266 269 274 279 281 280 279 277 280 285 284 274 270 277 286 294 294 292 292 291 286 284 284 282 281 281 280 278 277 277 279 281 283 283 282 284 286 288 291 295 297 299 303 309 316 318 320 324 325 327 329 329 329 330 331 332 333 333 333 332 332 331 328 326 324 324 323 324 325 326 326 326 327 328 324 316
255 255 252 248 244 249 256 258 258 246 259 270 277 280 281 282 280 280 284 287 287 282 281 284 288 292 294 295 292 286 282 282 280 279 279 278 275 274 273 274 276 278 280 281 282 284 286 289 292 295 297 300 306 313 317 319 321 324 326 327 328 329 329 330 331 332 333 333 333 332 332 331 329 326 324 324 324 324 326 327 327 326 327 327 323 316
254 251 249 245 241 243 243 224 220 257 268 272 274 274 276 278 279 279 282 286 288 287 284 284 289 296 297 292 282 276 276 277 274 273 274 273 270 270 271 272 275 277 278 280 282 284 287 290 292 294 297 302 309 315 317 319 322 324 326 327 328 329 329 330 331 332 332 333 333 333 332 331 329 326 325 325 324 324 326 327 327 327 327 327 322 315
253 250 249 244 238 241 235 228 245 264 274 276 275 275 275 277 278 277 278 286 291 289 285 288 293 295 294 288 279 275 272 269 267 269 272 271 269 269 270 272 274 276 277 279 282 285 288 291 292 294 299 306 312 315 316 319 323 325 327 328 328 329 329 330 330 331 332 332 333 332 332 331 329 326 325 325 324 325 327 328 328 327 327 327 323 315
249 248 249 242 237 241 238 241 257 262 269 275 278 280 280 279 279 274 273 285 292 292 289 289 290 289 293 295 289 281 269 263 267 276 278 273 271 271 271 272 273 274 275 277 281 285 288 290 293 297 303 309 312 314 316 320 323 325 328 328 328 328 328 329 330 331 332 332 332 332 331 330 329 326 325 325 324 326 327 328 328 327 327 329 325 317
242 244 245 240 236 235 228 229 242 239 258 270 274 279 280 277 277 277 276 286 294 298 295 289 285 289 296 298 294 286 271 267 278 292 284 270 269 269 268 269 270 271 273 277 281 285 287 290 295 301 306 310 311 313 316 319 322 325 327 327 327 328 329 330 330 331 332 332 332 331 331 330 328 326 325 324 324 325 327 329 330 329 329 329 326 319
233 236 235 231 231 231 227 230 238 245 259 269 271 273 274 272 275 276 274 292 299 300 293 287 287 291 295 297 295 289 282 282 290 290 267 261 263 262 262 266 268 270 274 278 282 285 289 293 298 303 306 308 310 312 315 318 322 325 327 327 327 328 329 330 331 331 331 331 331 331 330 329 327 325 324 324 324 325 328 331 332 330 330 330 327 320
223 227 226 227 232 232 228 230 241 252 264 269 267 268 270 266 262 252 272 299 304 289 277 281 284 287 291 293 293 291 290 289 283 266 257 259 260 260 263 266 269 272 277 280 283 287 291 296 299 302 305 307 310 312 315 319 323 326 327 327 327 329 330 330 331 331 331 331 331 330 329 328 326 325 325 324 324 326 330 333 333 331 331 332 329 323
215 215 219 225 228 227 227 231 240 257 271 275 268 264 263 252 248 266 290 303 299 278 276 281 281 285 290 291 291 291 288 281 273 266 264 263 261 262 264 267 271 276 279 281 285 290 294 297 300 302 305 308 310 313 316 320 324 327 327 327 328 329 331 331 331 332 331 331 330 330 330 328 326 325 325 325 325 327 331 334 334 333 333 334 332 326
230 220 215 220 224 221 222 226 231 254 279 289 273 256 252 252 267 291 300 297 288 284 285 284 281 285 289 289 288 287 281 277 275 272 268 264 261 262 265 269 274 276 278 283 289 293 295 298 299 302 306 308 310 313 317 322 326 327 327 327 328 330 332 332 332 332 332 331 330 330 331 329 327 327 327 327 327 329 332 335 335 336 336 337 335 329
238 230 222 225 226 215 206 220 245 267 285 293 283 270 269 276 289 295 292 288 287 287 286 284 284 287 289 288 285 281 279 279 276 273 269 263 261 264 267 271 273 275 280 287 290 293 295 296 299 303 307 309 311 315 321 325 327 327 326 327 330 332 332 333 333 332 332 331 332 332 332 331 330 329 330 330 330 331 334 336 337 338 339 339 338 332
243 245 243 240 240 239 239 251 267 279 283 283 283 283 283 286 289 289 288 287 287 286 285 284 285 286 286 284 280 278 280 279 274 270 266 261 263 267 269 270 273 277 283 288 290 292 294 295 300 305 308 310 314 319 324 327 327 327 327 329 331 333 333 334 333 332 333 333 334 334 334 333 333 332 332 333 333 333 335 337 339 341 341 340 340 335
251 253 250 247 248 254 259 264 268 272 275 279 283 284 282 282 285 285 286 287 284 283 284 283 283 284 283 278 276 278 278 275 269 265 263 263 266 267 267 271 276 281 285 289 290 291 293 296 301 305 308 313 318 322 326 328 327 326 328 330 333 334 334 334 334 333 334 335 335 335 335 334 335 335 335 336 336 336 337 338 341 344 343 342 342 338
250 249 247 249 250 248 254 264 269 270 274 281 283 280 279 281 284 284 285 285 283 282 281 281 281 280 276 273 275 276 273 270 266 262 262 264 264 265 269 275 279 283 287 289 289 291 293 297 302 306 311 316 321 325 327 328 326 327 330 332 334 335 335 335 335 334 335 336 337 336 336 336 336 337 338 338 338 339 339 341 344 346 345 343 343 341
251 249 245 246 247 246 257 272 274 270 272 278 278 278 282 284 285 286 285 284 283 281 279 279 277 274 272 271 272 271 269 266 263 262 263 263 263 267 273 277 281 285 287 288 289 291 293 297 303 308 313 318 322 326 327 327 327 328 331 333 334 335 336 336 336 336 336 337 338 337 336 337 338 339 339 340 341 343 343 344 346 349 348 346 345 344
253 249 247 247 247 251 262 270 266 262 269 278 281 285 290 289 288 288 283 280 281 280 276 275 273 271 269 267 265 265 265 263 262 262 262 262 266 270 275 278 282 284 285 286 288 289 292 298 304 310 315 319 323 327 327 327 328 329 331 333 335 336 337 337 337 337 338 338 339 338 337 339 340 341 341 342 345 349 350 348 349 351 351 351 349 348
247 246 247 244 241 249 262 270 270 267 273 284 289 291 291 287 284 284 280 277 279 278 273 271 269 266 263 261 261 262 262 261 260 260 260 263 268 272 275 278 280 282 284 285 286 288 292 299 305 311 316 320 324 327 327 328 329 330 331 334 335 336 338 339 338 339 339 339 340 339 338 340 342 342 343 344 347 352 355 355 353 352 352 353 354 352
249 250 251 248 250 259 270 278 280 277 279 288 292 290 286 281 280 281 279 276 276 275 271 268 264 260 257 255 257 259 260 258 257 257 260 264 268 271 274 276 278 280 281 281 284 287 292 299 306 312 317 321 325 327 327 328 329 330 331 334 336 338 339 340 340 340 340 339 340 340 340 341 343 343 345 347 350 353 356 359 359 356 354 354 356 356
Height
3154 3153 3152 3150 3149 3148 3146 3145 3144 3142 3141 3140 3138 3137 3135 3133 3130 3129 3129 3128 3126 3121 3118 3117 3115 3113 3113 3112 3110 3108 3105 3104 3103 3102 3101 3099 3097 3097 3096 3094 3092 3091 3091 3091 3089 3086 3084 3083 3082 3081 3079 3078 3076 3074 3072 3070 3068 3066 3064 3062 3058 3056 3052 3049 3045 3042 3038 3034 3031 3029 3027 3024 3022 3019 3016 3013 3010 3007 3004 3001 2999 2996 2993 2990 2987 2985
3152 3151 3150 3148 3147 3146 3145 3144 3142 3141 3140 3138 3136 3134 3132 3130 3128 3127 3126 3124 3123 3118 3114 3113 3110 3108 3109 3108 3107 3104 3101 3099 3099 3098 3096 3094 3093 3092 3091 3089 3088 3088 3088 3087 3084 3082 3081 3080 3078 3077 3076 3074 3073 3070 3068 3066 3065 3063 3060 3057 3054 3051 3047 3043 3040 3037 3033 3029 3026 3023 3020 3018 3015 3012 3009 3005 3002 3000 2997 2994 2992 2989 2986 2983 2980 2978
3150 3149 3148 3147 3145 3144 3142 3141 3141 3140 3138 3136 3135 3132 3130 3128 3125 3123 3123 3121 3120 3115 3110 3108 3104 3103 3105 3105 3102 3098 3095 3095 3094 3093 3092 3090 3088 3087 3086 3086 3085 3084 3084 3082 3080 3078 3077 3076 3075 3074 3072 3070 3068 3066 3064 3062 3061 3058 3055 3052 3049 3046 3043 3039 3036 3033 3029 3026 3022 3019 3016 3013 3010 3008 3004 3000 2996 2993 2991 2989 2986 2983 2980 2977 2975 2972
3147 3146 3145 3144 3143 3142 3140 3139 3138 3137 3136 3134 3132 3130 3128 3127 3124 3120 3119 3118 3117 3113 3108 3103 3097 3096 3100 3100 3097 3094 3091 3091 3090 3088 3087 3085 3084 3083 3083 3082 3081 3080 3080 3078 3076 3074 3073 3072 3071 3070 3068 3066 3064 3062 3060 3058 3056 3054 3051 3048 3045 3042 3038 3035 3032 3029 3025 3022 3019 3016 3013 3010 3007 3004 3001 2997 2993 2989 2986 2983 2980 2977 2973 2969 2967 2965
3145 3144 3143 3142 3141 3139 3137 3136 3136 3135 3134 3132 3131 3129 3126 3125 3124 3119 3116 3114 3112 3111 3108 3102 3090 3084 3091 3093 3091 3091 3088 3087 3086 3083 3082 3081 3079 3079 3078 3078 3077 3077 3076 3074 3072 3070 3069 3068 3067 3065 3063 3062 3060 3058 3056 3054 3051 3049 3046 3043 3041 3038 3034 3031 3028 3024 3021 3018 3015 3012 3010 3006 3003 2999 2996 2992 2989 2985 2981 2976 2972 2969 2965 2960 2957 2956
3142 3142 3140 3139 3138 3136 3135 3134 3133 3132 3130 3129 3129 3127 3125 3123 3121 3118 3116 3112 3108 3106 3106 3105 3091 3077 3079 3085 3085 3085 3084 3082 3081 3077 3076 3076 3075 3074 3074 3072 3073 3072 3071 3069 3068 3067 3065 3064 3062 3060 3059 3058 3056 3053 3051 3049 3046 3044 3041 3038 3036 3033 3030 3026 3023 3020 3016 3013 3009 3006 3002 2999 2995 2992 2988 2984 2979 2976 2974 2970 2966 2963 2960 2955 2950 2946
3138 3139 3137 3136 3134 3133 3132 3131 3131 3129 3127 3126 3125 3125 3123 3121 3119 3116 3114 3111 3106 3102 3102 3106 3098 3080 3072 3077 3079 3078 3078 3077 3075 3072 3071 3071 3069 3069 3068 3067 3067 3067 3066 3065 3063 3063 3061 3059 3058 3056 3055 3053 3051 3049 3047 3044 3042 3039 3036 3033 3032 3029 3025 3022 3018 3015 3012 3008 3004 3000 2996 2992 2988 2984 2981 2978 2973 2968 2965 2962 2959 2955 2953 2949 2944 2940
3135 3135 3134 3133 3132 3130 3129 3129 3128 3127 3125 3123 3122 3123 3121 3119 3117 3114 3112 3110 3104 3100 3098 3099 3100 3087 3068 3066 3072 3072 3072 3071 3069 3067 3066 3065 3065 3064 3063 3062 3062 3062 3061 3060 3059 3057 3055 3053 3053 3052 3051 3049 3047 3044 3042 3040 3037 3034 3032 3029 3027 3024 3021 3017 3014 3010 3007 3003 2999 2995 2991 2987 2983 2978 2975 2972 2968 2964 2958 2955 2951 2948 2945 2941 2936 2932
3132 3132 3131 3130 3128 3127 3126 3126 3126 3124 3123 3121 3120 3120 3118 3117 3115 3111 3109 3106 3102 3098 3092 3089 3096 3090 3064 3057 3067 3067 3065 3065 3063 3062 3061 3060 3061 3059 3057 3057 3058 3057 3056 3055 3054 3052 3050 3049 3048 3047 3046 3044 3042 3040 3037 3035 3032 3029 3027 3024 3022 3019 3016 3012 3009 3006 3002 2998 2995 2991 2986 2982 2978 2973 2968 2964 2961 2957 2952 2947 2944 2940 2936 2933 2928 2923
3129 3128 3128 3126 3125 3124 3124 3123 3123 3122 3121 3119 3119 3117 3116 3115 3111 3109 3106 3102 3101 3097 3086 3082 3090 3087 3060 3050 3061 3063 3060 3060 3058 3057 3057 3055 3056 3053 3052 3054 3053 3052 3051 3050 3049 3047 3045 3044 3043 3043 3041 3039 3037 3035 3033 3030 3027 3024 3022 3019 3017 3014 3011 3007 3004 3001 2998 2994 2990 2986 2981 2977 2973 2968 2963 2958 2953 2950 2945 2940 2937 2932 2928 2924 2919 2915
3125 3125 3124 3123 3121 3121 3121 3120 3119 3120 3119 3117 3117 3114 3113 3112 3108 3106 3102 3100 3100 3090 3079 3078 3084 3084 3064 3047 3052 3057 3055 3055 3053 3052 3053 3052 3051 3049 3049 3050 3049 3048 3046 3045 3043 3042 3041 3040 3039 3038 3036 3035 3033 3031 3029 3025 3022 3020 3017 3014 3012 3010 3007 3003 3000 2996 2993 2989 2984 2980 2976 2971 2966 2961 2956 2950 2945 2941 2937 2933 2929 2925 2920 2915 2910 2906
3120 3120 3120 3119 3118 3118 3117 3117 3116 3117 3116 3115 3114 3112 3110 3107 3104 3102 3098 3099 3097 3083 3075 3076 3079 3080 3066 3045 3045 3051 3049 3049 3049 3047 3049 3048 3046 3046 3046 3046 3045 3043 3042 3040 3039 3038 3037 3036 3034 3033 3031 3030 3029 3026 3023 3020 3018 3016 3013 3011 3009 3007 3003 2999 2995 2992 2988 2984 2979 2974 2970 2964 2959 2954 2948 2943 2938 2933 2929 2925 2921 2917 2913 2908 2903 2897
3115 3115 3115 3114 3114 3114 3113 3113 3114 3113 3114 3113 3112 3112 3110 3106 3104 3100 3095 3094 3090 3079 3074 3076 3076 3072 3055 3042 3044 3047 3045 3045 3044 3043 3044 3043 3042 3042 3043 3042 3040 3038 3037 3035 3035 3034 3033 3031 3030 3028 3026 3025 3024 3021 3019 3016 3014 3012 3009 3007 3005 3002 2999 2994 2990 2986 2982 2978 2973 2968 2964 2958 2953 2947 2941 2936 2932 2927 2922 2917 2912 2908 2903 2899 2895 2888
3110 3109 3110 3110 3109 3110 3109 3109 3110 3110 3111 3111 3110 3110 3109 3108 3106 3099 3093 3089 3081 3075 3073 3075 3074 3062 3044 3038 3041 3041 3042 3042 3040 3040 3040 3038 3038 3039 3038 3037 3035 3033 3032 3031 3031 3030 3028 3027 3025 3023 3022 3021 3019 3017 3014 3012 3009 3007 3005 3002 2999 2997 2993 2989 2984 2981 2977 2972 2968 2963 2957 2952 2946 2941 2936 2930 2925 2921 2916 2911 2905 2900 2895 2890 2886 2880
3107 3104 3105 3106 3105 3105 3105 3106 3107 3106 3107 3107 3106 3108 3105 3106 3105 3097 3090 3086 3078 3072 3070 3071 3068 3052 3038 3035 3035 3038 3039 3038 3037 3037 3036 3034 3035 3035 3034 3033 3031 3029 3028 3027 3026 3026 3024 3022 3021 3019 3017 3016 3014 3012 3009 3007 3004 3002 3000 2997 2994 2991 2987 2983 2979 2975 2971 2967 2963 2957 2951 2946 2940 2935 2930 2925 2920 2915 2910 2904 2898 2893 2888 2883 2878 2872
3102 3099 3100 3101 3101 3102 3102 3102 3103 3103 3103 3103 3103 3103 3100 3099 3099 3094 3088 3083 3080 3076 3067 3062 3054 3041 3034 3030 3030 3035 3035 3033 3034 3032 3030 3030 3030 3031 3030 3028 3027 3025 3024 3023 3022 3021 3020 3018 3016 3014 3013 3011 3010 3008 3005 3003 3000 2998 2995 2992 2989 2986 2982 2978 2974 2970 2966 2961 2957 2952 2946 2940 2935 2930 2925 2919 2914 2908 2903 2897 2891 2885 2881 2875 2870 2865
3098 3095 3095 3097 3097 3098 3099 3099 3099 3100 3100 3099 3098 3097 3095 3094 3094 3091 3086 3081 3083 3079 3062 3052 3043 3033 3030 3024 3023 3030 3030 3028 3030 3026 3025 3026 3026 3026 3025 3023 3023 3021 3020 3019 3018 3017 3016 3014 3012 3010 3009 3008 3006 3004 3001 2999 2996 2993 2990 2986 2983 2980 2976 2973 2969 2965 2960 2956 2951 2946 2940 2935 2929 2924 2919 2913 2908 2902 2897 2891 2885 2879 2873 2868 2863 2858
3096 3091 3090 3093 3093 3093 3095 3094 3095 3095 3095 3095 3093 3092 3091 3091 3090 3089 3087 3081 3081 3077 3058 3047 3042 3031 3026 3020 3017 3023 3025 3023 3024 3021 3020 3022 3021 3021 3020 3019 3019 3017 3016 3016 3014 3014 3012 3010 3008 3006 3006 3005 3003 3000 2997 2995 2992 2988 2984 2980 2977 2974 2971 2967 2963 2958 2954 2949 2945 2940 2935 2930 2924 2918 2912 2907 2901 2895 2889 2884 2879 2873 2867 2861 2856 2850
3094 3089 3085 3087 3089 3089 3090 3090 3090 3090 3090 3090 3088 3088 3088 3088 3086 3085 3086 3080 3077 3072 3055 3044 3040 3025 3016 3016 3015 3018 3020 3019 3019 3016 3016 3018 3017 3016 3015 3015 3015 3013 3013 3012 3011 3010 3008 3006 3005 3004 3003 3001 2999 2996 2993 2990 2987 2983 2979 2975 2972 2969 2965 2961 2957 2952 2948 2943 2939 2934 2929 2924 2918 2912 2906 2900 2894 2888 2882 2877 2872 2867 2861 2854 2849 2843
3092 3088 3082 3081 3083 3085 3085 3085 3085 3084 3086 3086 3084 3084 3083 3082 3082 3080 3080 3077 3072 3067 3053 3045 3039 3018 3004 3010 3013 3013 3015 3016 3014 3012 3012 3013 3012 3011 3011 3011 3010 3009 3009 3008 3007 3006 3004 3003 3001 3001 3000 2997 2995 2992 2989 2985 2982 2978 2975 2970 2967 2963 2959 2956 2951 2947 2942 2938 2933 2929 2924 2918 2911 2905 2900 2894 2887 2881 2875 2869 2864 2859 2854 2847 2841 2836
3089 3086 3080 3077 3079 3079 3077 3078 3079 3080 3083 3081 3079 3079 3077 3077 3078 3074 3071 3069 3069 3066 3055 3048 3036 3009 2998 3008 3010 3009 3012 3011 3010 3009 3009 3009 3008 3007 3007 3007 3006 3005 3004 3004 3003 3002 3001 2999 2998 2997 2995 2993 2990 2987 2984 2980 2977 2973 2969 2965 2961 2957 2953 2950 2946 2941 2936 2932 2927 2923 2918 2912 2906 2899 2893 2887 2881 2874 2868 2862 2857 2852 2847 2841 2834 2829
3084 3081 3077 3074 3072 3071 3070 3072 3074 3075 3076 3074 3073 3072 3071 3073 3074 3072 3066 3060 3062 3060 3050 3048 3033 3000 2994 3006 3006 3006 3010 3008 3007 3006 3005 3005 3003 3002 3002 3002 3001 3001 3000 3000 2999 2998 2997 2995 2994 2992 2990 2987 2985 2982 2979 2975 2972 2969 2965 2960 2956 2952 2948 2944 2940 2935 2930 2926 2921 2916 2911 2905 2899 2893 2887 2881 2874 2868 2862 2856 2851 2846 2840 2834 2828 2822
3080 3078 3073 3069 3067 3066 3067 3068 3069 3070 3069 3068 3066 3065 3066 3068 3067 3067 3061 3053 3055 3052 3044 3048 3032 2994 2988 3001 3001 3002 3006 3003 3003 3003 3001 3000 2998 2998 2998 2997 2997 2996 2995 2996 2995 2994 2992 2990 2989 2987 2984 2982 2980 2977 2974 2970 2967 2964 2960 2956 2951 2947 2944 2939 2935 2930 2925 2920 2915 2909 2904 2898 2892 2886 2880 2874 2868 2862 2856 2850 2845 2839 2834 2828 2821 2815
3076 3073 3069 3065 3063 3064 3063 3063 3064 3064 3063 3061 3058 3058 3059 3058 3057 3058 3054 3050 3050 3043 3041 3048 3024 2987 2987 2998 2995 2998 3000 2998 2998 2997 2996 2996 2994 2993 2993 2992 2992 2992 2991 2991 2990 2988 2987 2985 2984 2981 2979 2977 2974 2972 2969 2965 2962 2959 2955 2951 2947 2943 2939 2934 2930 2925 2919 2914 2909 2903 2897 2892 2886 2880 2874 2868 2862 2856 2850 2844 2838 2833 2827 2821 2814 2809
3070 3068 3066 3064 3063 3061 3058 3057 3058 3057 3056 3053 3050 3051 3051 3050 3053 3052 3049 3050 3043 3033 3038 3038 3007 2983 2990 2995 2991 2994 2995 2993 2994 2993 2991 2991 2989 2989 2989 2988 2988 2987 2986 2986 2985 2983 2982 2980 2978 2976 2974 2972 2969 2966 2963 2960 2957 2954 2950 2946 2942 2938 2933 2929 2924 2919 2913 2908 2902 2897 2891 2885 2879 2873 2867 2862 2856 2850 2844 2838 2832 2826 2820 2814 2807 2802
3063 3062 3061 3060 3060 3057 3051 3049 3050 3050 3050 3046 3043 3044 3044 3045 3048 3045 3046 3046 3033 3026 3031 3019 2994 2985 2989 2989 2988 2989 2989 2988 2989 2988 2987 2987 2986 2985 2985 2984 2983 2983 2982 2981 2980 2979 2977 2976 2973 2971 2969 2966 2964 2961 2958 2955 2952 2949 2945 2941 2937 2933 2928 2924 2919 2914 2908 2902 2897 2891 2886 2880 2873 2867 2861 2856 2850 2845 2839 2832 2826 2819 2813 2807 2801 2796
3057 3054 3052 3051 3050 3048 3042 3042 3045 3046 3044 3040 3036 3037 3038 3038 3040 3041 3041 3033 3022 3025 3019 2998 2993 2991 2979 2981 2988 2985 2983 2984 2983 2983 2983 2982 2982 2981 2980 2980 2978 2978 2977 2976 2975 2974 2972 2971 2968 2965 2963 2961 2959 2956 2953 2950 2947 2943 2940 2936 2932 2928 2924 2920 2914 2909 2903 2898 2892 2886 2880 2874 2867 2861 2856 2851 2845 2839 2833 2827 2820 2813 2807 2801 2795 2790
3051 3046 3044 3044 3041 3039 3038 3039 3042 3041 3038 3034 3032 3031 3031 3032 3034 3033 3028 3018 3018 3025 3004 2983 2994 2992 2970 2975 2986 2981 2981 2982 2978 2979 2979 2977 2977 2976 2975 2975 2973 2973 2972 2970 2970 2969 2967 2965 2962 2960 2958 2956 2954 2951 2948 2945 2942 2939 2935 2931 2928 2923 2919 2914 2909 2904 2899 2893 2887 2881 2874 2868 2862 2856 2851 2845 2839 2834 2827 2821 2815 2808 2802 2795 2789 2785
3045 3039 3037 3038 3036 3033 3034 3035 3036 3035 3032 3029 3025 3024 3026 3027 3024 3020 3015 3010 3014 3014 2991 2979 2991 2984 2966 2972 2981 2977 2979 2978 2974 2976 2974 2971 2971 2969 2969 2969 2967 2967 2966 2965 2965 2964 2961 2959 2956 2955 2953 2951 2949 2946 2944 2941 2938 2934 2931 2927 2923 2919 2914 2909 2903 2899 2894 2888 2882 2875 2869 2863 2857 2851 2846 2840 2834 2829 2823 2817 2810 2804 2798 2791 2784 2780
3039 3033 3033 3034 3030 3027 3028 3030 3030 3029 3027 3021 3015 3017 3021 3018 3013 3012 3008 3004 3004 2999 2985 2981 2985 2971 2960 2969 2975 2973 2973 2972 2970 2970 2967 2965 2965 2964 2964 2964 2962 2962 2961 2960 2960 2958 2956 2954 2952 2950 2948 2946 2944 2941 2939 2937 2933 2929 2926 2922 2918 2914 2909 2903 2898 2893 2888 2882 2876 2869 2863 2858 2852 2847 2841 2835 2829 2823 2818 2812 2805 2799 2793 2786 2780 2775
3033 3028 3029 3029 3026 3022 3022 3024 3024 3022 3021 3014 3005 3007 3012 3009 3005 3005 3000 2994 2994 2988 2980 2981 2978 2961 2954 2964 2969 2966 2966 2965 2964 2963 2961 2960 2960 2959 2959 2958 2957 2957 2956 2955 2955 2952 2951 2949 2947 2945 2944 2941 2940 2937 2934 2931 2928 2925 2921 2917 2913 2909 2903 2899 2893 2888 2883 2876 2870 2864 2858 2853 2848 2842 2836 2830 2824 2818 2813 2807 2800 2794 2788 2781 2775 2770
3027 3024 3023 3025 3022 3016 3015 3018 3017 3015 3016 3006 2994 2994 2999 2998 2995 2993 2989 2985 2983 2979 2975 2977 2969 2954 2952 2961 2961 2958 2958 2957 2956 2956 2956 2955 2955 2955 2954 2953 2952 2952 2951 2951 2950 2948 2947 2945 2942 2941 2939 2937 2935 2932 2929 2926 2923 2920 2916 2912 2908 2903 2899 2894 2889 2884 2878 2872 2866 2860 2854 2848 2843 2837 2831 2825 2819 2814 2808 2802 2795 2789 2783 2776 2771 2766
3020 3018 3018 3020 3017 3011 3011 3012 3010 3013 3012 2994 2978 2980 2986 2986 2983 2982 2979 2975 2972 2972 2972 2967 2956 2950 2954 2957 2953 2951 2950 2949 2949 2951 2951 2950 2951 2950 2949 2947 2947 2947 2947 2947 2946 2944 2942 2940 2938 2937 2935 2933 2930 2927 2924 2921 2918 2915 2910 2906 2902 2898 2895 2890 2885 2880 2874 2868 2862 2855 2849 2843 2837 2832 2826 2820 2814 2809 2803 2797 2790 2784 2777 2771 2766 2761
3012 3012 3013 3013 3011 3007 3007 3006 3008 3012 3000 2975 2967 2975 2978 2976 2976 2975 2970 2964 2964 2965 2962 2954 2949 2949 2952 2951 2947 2946 2944 2943 2944 2944 2944 2945 2945 2944 2943 2943 2943 2943 2943 2942 2941 2939 2938 2936 2935 2933 2930 2928 2925 2923 2920 2916 2913 2910 2906 2902 2899 2895 2891 2886 2880 2875 2869 2864 2858 2851 2845 2839 2833 2827 2822 2816 2810 2804 2798 2792 2786 2779 2772 2766 2760 2756
3005 3007 3007 3006 3005 3002 3002 3005 3007 2999 2979 2964 2966 2973 2971 2968 2969 2968 2961 2956 2956 2957 2953 2948 2946 2945 2946 2946 2943 2941 2939 2938 2939 2937 2938 2939 2938 2938 2938 2938 2938 2939 2938 2937 2936 2934 2933 2932 2930 2928 2926 2924 2921 2918 2916 2912 2909 2907 2903 2899 2895 2891 2886 2881 2876 2870 2865 2859 2854 2847 2841 2835 2829 2823 2817 2811 2805 2799 2793 2787 2781 2774 2767 2760 2755 2750
2999 3001 2999 2998 2999 2997 2997 2999 2993 2978 2965 2963 2966 2968 2965 2964 2963 2961 2955 2948 2948 2950 2947 2943 2941 2940 2940 2940 2938 2936 2935 2934 2933 2932 2933 2933 2932 2932 2932 2932 2933 2934 2933 2932 2931 2929 2929 2927 2926 2924 2922 2919 2917 2914 2911 2908 2905 2902 2899 2895 2891 2886 2881 2876 2871 2866 2860 2855 2849 2843 2836 2830 2824 2819 2812 2806 2800 2794 2788 2782 2775 2769 2762 2755 2750 2745
2992 2993 2991 2991 2991 2989 2989 2985 2977 2972 2966 2956 2954 2959 2961 2958 2958 2958 2951 2941 2940 2944 2942 2938 2937 2935 2934 2933 2931 2931 2931 2929 2927 2928 2929 2928 2927 2927 2928 2928 2929 2929 2928 2928 2926 2925 2924 2923 2921 2920 2917 2915 2912 2909 2907 2904 2901 2898 2894 2890 2886 2882 2877 2872 2867 2861 2856 2850 2844 2838 2832 2825 2819 2813 2808 2801 2795 2789 2783 2776 2770 2764 2756 2750 2744 2739
2983 2983 2984 2984 2981 2981 2982 2978 2976 2976 2963 2945 2943 2951 2952 2951 2953 2954 2948 2935 2930 2934 2935 2932 2931 2930 2928 2928 2927 2926 2926 2924 2922 2924 2925 2924 2923 2923 2923 2924 2924 2924 2924 2923 2922 2921 2920 2918 2916 2915 2912 2910 2908 2905 2903 2900 2897 2893 2890 2886 2882 2878 2873 2867 2862 2857 2851 2846 2839 2833 2827 2820 2814 2808 2802 2797 2790 2784 2778 2772 2765 2758 2751 2744 2738 2734
2975 2975 2976 2978 2975 2975 2976 2973 2971 2966 2950 2938 2941 2945 2946 2946 2947 2949 2947 2931 2922 2926 2928 2925 2924 2923 2922 2922 2921 2921 2921 2918 2917 2920 2921 2919 2919 2919 2919 2919 2920 2919 2919 2919 2918 2917 2915 2913 2911 2909 2908 2906 2904 2902 2899 2896 2893 2890 2886 2882 2878 2873 2868 2863 2857 2852 2847 2841 2835 2828 2821 2815 2809 2803 2797 2792 2786 2780 2773 2767 2760 2752 2745 2738 2732 2728
2966 2966 2968 2969 2966 2965 2966 2964 2962 2953 2938 2934 2938 2939 2940 2941 2942 2947 2944 2926 2916 2921 2921 2917 2918 2916 2915 2916 2915 2915 2915 2913 2913 2916 2915 2914 2914 2914 2914 2915 2915 2915 2915 2915 2914 2912 2910 2909 2907 2905 2904 2902 2900 2898 2896 2893 2890 2886 2882 2878 2873 2868 2863 2858 2853 2848 2842 2836 2830 2823 2816 2810 2804 2799 2793 2787 2782 2776 2769 2762 2755 2747 2740 2734 2728 2724
2957 2958 2959 2957 2955 2957 2959 2958 2953 2942 2929 2928 2932 2933 2935 2937 2939 2940 2931 2916 2913 2917 2914 2912 2912 2910 2909 2910 2909 2908 2909 2908 2909 2910 2909 2909 2910 2910 2910 2911 2911 2911 2911 2910 2909 2908 2906 2904 2902 2901 2900 2898 2896 2894 2892 2889 2886 2882 2878 2873 2868 2863 2859 2854 2849 2843 2837 2830 2824 2817 2811 2805 2799 2794 2789 2783 2777 2772 2765 2758 2751 2743 2736 2729 2724 2720
2948 2949 2950 2949 2948 2951 2952 2952 2949 2935 2919 2919 2925 2927 2929 2931 2928 2921 2914 2911 2912 2911 2908 2908 2906 2904 2904 2904 2902 2903 2904 2903 2904 2905 2905 2905 2905 2905 2906 2907 2906 2906 2906 2905 2904 2903 2901 2899 2898 2897 2895 2894 2892 2890 2888 2885 2882 2878 2873 2869 2864 2859 2854 2849 2844 2838 2832 2825 2818 2812 2806 2800 2794 2789 2784 2779 2773 2767 2761 2755 2748 2740 2732 2725 2720 2717
2937 2939 2938 2938 2939 2943 2947 2948 2944 2926 2911 2912 2918 2919 2918 2917 2912 2908 2907 2908 2907 2905 2904 2903 2901 2900 2900 2898 2897 2898 2898 2898 2900 2900 2900 2900 2900 2901 2902 2901 2902 2902 2901 2900 2899 2898 2896 2895 2894 2892 2891 2890 2888 2886 2884 2881 2878 2874 2870 2865 2860 2855 2850 2845 2839 2833 2827 2820 2813 2806 2801 2795 2790 2785 2780 2775 2769 2763 2757 2751 2744 2736 2729 2722 2717 2713
2928 2925 2924 2925 2927 2932 2933 2928 2917 2907 2903 2906 2907 2905 2905 2905 2904 2904 2904 2902 2901 2900 2900 2898 2897 2897 2895 2893 2893 2893 2892 2894 2894 2894 2895 2896 2895 2896 2897 2897 2897 2897 2896 2896 2894 2893 2892 2891 2889 2889 2887 2886 2884 2882 2880 2877 2873 2870 2866 2861 2856 2851 2846 2841 2835 2828 2822 2815 2808 2802 2796 2791 2787 2782 2777 2772 2765 2758 2752 2747 2740 2732 2725 2719 2714 2710
2912 2910 2913 2915 2914 2915 2912 2904 2898 2899 2900 2898 2895 2895 2897 2898 2899 2899 2897 2896 2896 2896 2894 2893 2893 2892 2891 2889 2888 2887 2888 2889 2889 2889 2890 2890 2890 2892 2892 2892 2892 2892 2892 2891 2890 2888 2888 2886 2885 2885 2883 2881 2880 2878 2875 2872 2869 2865 2861 2857 2852 2847 2842 2836 2830 2824 2817 2810 2803 2798 2793 2789 2784 2779 2774 2769 2762 2754 2747 2742 2736 2729 2721 2716 2711 2706
2905 2906 2908 2908 2907 2907 2901 2892 2891 2894 2892 2888 2888 2891 2893 2893 2893 2892 2891 2890 2890 2890 2889 2889 2888 2886 2885 2884 2883 2883 2884 2884 2884 2885 2885 2885 2886 2887 2887 2887 2888 2887 2887 2886 2885 2884 2884 2882 2882 2881 2879 2878 2876 2873 2871 2868 2864 2861 2857 2852 2848 2844 2838 2832 2826 2819 2812 2806 2800 2794 2790 2786 2782 2777 2772 2766 2759 2751 2744 2737 2731 2724 2718 2713 2708 2703
2900 2902 2901 2901 2902 2899 2888 2880 2883 2886 2884 2884 2885 2885 2886 2887 2887 2886 2885 2884 2884 2884 2884 2883 2881 2880 2879 2878 2878 2879 2879 2879 2880 2880 2880 2882 2882 2882 2882 2883 2883 2883 2882 2882 2881 2880 2880 2879 2878 2877 2875 2874 2872 2869 2867 2864 2860 2856 2852 2848 2844 2840 2834 2828 2821 2814 2808 2802 2797 2792 2788 2784 2780 2775 2769 2764 2757 2749 2742 2735 2729 2722 2715 2710 2705 2700
2892 2895 2893 2891 2890 2886 2877 2874 2877 2879 2878 2879 2879 2878 2880 2881 2880 2880 2880 2879 2879 2878 2877 2877 2875 2874 2873 2874 2874 2875 2874 2875 2875 2875 2876 2877 2877 2877 2878 2878 2878 2878 2878 2877 2877 2877 2876 2875 2874 2873 2871 2870 2868 2866 2863 2860 2856 2853 2849 2845 2840 2836 2830 2824 2817 2810 2804 2799 2795 2790 2786 2782 2778 2773 2767 2762 2755 2747 2737 2730 2725 2720 2713 2707 2701 2695
2887 2887 2882 2880 2882 2879 2870 2866 2869 2871 2872 2872 2871 2872 2875 2875 2874 2874 2874 2873 2872 2871 2870 2870 2870 2869 2869 2869 2869 2869 2870 2870 2871 2871 2872 2872 2872 2873 2873 2873 2874 2874 2874 2873 2874 2873 2872 2871 2870 2869 2868 2866 2864 2862 2860 2856 2853 2849 2845 2841 2837 2832 2827 2820 2813 2807 2801 2796 2793 2789 2785 2781 2776 2771 2766 2760 2754 2747 2737 2726 2719 2715 2712 2707 2700 2693
2876 2873 2871 2873 2874 2867 2857 2856 2861 2864 2864 2865 2866 2867 2869 2869 2868 2867 2866 2865 2866 2865 2865 2865 2865 2864 2865 2864 2864 2864 2865 2865 2866 2867 2867 2867 2868 2868 2869 2869 2870 2870 2870 2870 2870 2869 2868 2868 2866 2865 2864 2862 2861 2859 2856 2853 2849 2845 2841 2838 2833 2829 2823 2817 2810 2804 2798 2794 2791 2787 2783 2779 2774 2770 2764 2758 2753 2749 2742 2732 2721 2713 2709 2706 2701 2694
2861 2860 2861 2861 2857 2851 2849 2854 2858 2856 2855 2858 2861 2861 2861 2862 2861 2859 2859 2859 2859 2859 2859 2859 2859 2859 2859 2859 2859 2860 2860 2861 2862 2862 2863 2863 2864 2864 2864 2865 2865 2866 2866 2867 2866 2866 2865 2864 2863 2862 2860 2858 2857 2855 2852 2849 2846 2842 2839 2835 2830 2825 2820 2813 2807 2801 2796 2793 2789 2786 2782 2777 2773 2768 2763 2758 2752 2747 2742 2737 2729 2719 2710 2704 2699 2694